If you wish to contribute or participate in the discussions about articles you are invited to join SKYbrary as a registered user

 Actions

Anaktuvuk Pass Airport

From SKYbrary Wiki

PAKP
Airport
ICAO: PAKP – IATA: AKP
Summary
Name Anaktuvuk Pass Airport
Region North America
Territory Alaska US.gif
Location Anaktuvuk Pass, Alaska
Serving Anaktuvuk Pass
Elevation 640.69 m
2,102 ft
2,102 ft640.69 m
Type medium airport
Coordinates 68° 8' 0.96" N, 151° 44' 34.80" W
Runways
Designator Length Width Surface ROPS
2/20 1463 m4,799.869 ft
30 m98.425 ft
GRAVEL-G /


METAR
Observation PAKP 270356Z AUTO 35007KT 10SM OVC003 M20/M22 A2963 RMK AO2 SNE03B29E48 SLP109 P0000 T12001222 FZRANO
Station Anaktuvuk Pass, Anaktuvuk Pass Airport
Date/Time 27 October 2020 03:56:00
Wind direction 350°
Wind speed 07 kts
Lowest cloud amount overcast
Temperature
Dew point
Humidity 82%
QNH hPa
Weather condition n/a

Maps

Terrain

Loading map...

Airport Layout

Loading map...


Accidents & Serious Incidents at or in vicinity of PAKP

None on SKYbrary